Location: Strawberry
(45.6646°N, 111.9596°W)
Time: 22:21:58
(UTC+00:00)

Courier 1B Rocket - Pass Details

Date: 14 October 2022
Orbit: 920 x 1202 km, 28.3° (Epoch: 03 December)

Event Time Altitude Azimuth Distance (km) Brightness Sun altitude
Rises 01:38:58 0° 249° (WSW) 3,981 9.7 -10.1°
Reaches altitude 10° 01:43:20 10° 227° (SW) 2,961 8.2 -10.9°
Maximum altitude 01:46:55 14° 197° (SSW) 2,593 7.4 -11.5°
Drops below altitude 10° 01:50:24 10° 166° (SSE) 2,852 7.3 -12.1°
Sets 01:54:27 0° 143° (SE) 3,739 7.7 -12.8°
Enters shadow 01:54:36 - 143° (SE) 3,779 7.7 -12.9°
